SL-8 R/B (2802 NORAD) Tracking and Keplerian Element Data

This shows tracking and keplerian element data for the satellite.

Feedback or suggestion? Click here.




ElementValue
Catalog2802
NameSL-8 R/B
Epoch Orbit97534
Epoch Day12.46537768
Epoch Year2024
RAAN17.0372
Inclination74.0121
Eccentricity0.0066551
Argument of Perigee215.136
Mean Anonmoly144.54
Mean Motion14.44465027
Decay Rate5.91E-06
L11 02802U 67045B 24012.46537768 .00000591 00000+0 17483-3 0 9999
L22 02802 74.0121 17.0372 0066551 215.1360 144.5400 14.44465027975343



Live tracking and technical data element details for SL-8 R/B (NORAD 2802). SL-8 R/B can be tracked NOW for your location showing map with azimuth and elevation plus other details from your city location.







IsCatalogInMostPopularTable: catalog: 2802, numindb: 320
Update: records affected: 1



GetName: 2802 SL-8 R/B

Hit Count: updated at: Sun, 14 Apr 2024 22:57:31 GMT